TimeCST,TemperatureF,Dew PointF,Humidity,Sea Level PressureIn,VisibilityMPH,Wind Direction,Wind SpeedMPH,Gust SpeedMPH,PrecipitationIn,Events,Conditions,WindDirDegrees,DateUTC
12:56 AM,35.1,30.0,82,30.04,5.0,East,5.8,-,0.00,Rain,Light Rain,90,2013-02-07 06:56:00
1:56 AM,35.1,30.0,82,30.02,5.0,ESE,8.1,-,0.02,,Haze,110,2013-02-07 07:56:00
2:56 AM,34.0,30.9,89,30.01,5.0,East,6.9,-,0.00,,Overcast,100,2013-02-07 08:56:00
3:56 AM,35.1,30.9,85,29.99,5.0,East,8.1,-,N/A,,Overcast,100,2013-02-07 09:56:00
4:56 AM,35.1,30.9,85,30.00,5.0,East,8.1,-,N/A,,Overcast,90,2013-02-07 10:56:00
5:56 AM,34.0,30.9,89,29.99,4.0,East,5.8,-,N/A,,Overcast,100,2013-02-07 11:56:00
6:56 AM,34.0,30.9,89,29.98,4.0,East,8.1,-,N/A,,Overcast,90,2013-02-07 12:56:00
7:14 AM,35.6,30.2,81,29.97,4.0,East,9.2,-,N/A,,Overcast,90,2013-02-07 13:14:00
7:33 AM,33.8,30.2,87,29.97,2.5,East,6.9,-,0.00,Rain,Light Rain,90,2013-02-07 13:33:00
7:56 AM,34.0,30.9,89,29.99,2.5,East,6.9,-,0.00,Rain,Light Rain,100,2013-02-07 13:56:00
8:17 AM,33.8,32.0,93,29.98,2.0,East,5.8,-,0.00,Rain,Light Rain,100,2013-02-07 14:17:00
8:48 AM,33.8,32.0,93,29.98,1.8,East,5.8,-,0.02,Rain,Light Rain,100,2013-02-07 14:48:00
8:56 AM,34.0,32.0,92,29.99,1.8,East,5.8,-,0.02,Rain,Light Rain,90,2013-02-07 14:56:00
9:40 AM,33.8,32.0,93,29.99,1.0,Calm,Calm,-,0.02,Snow,Light Snow,0,2013-02-07 15:40:00
9:52 AM,33.8,32.0,93,29.98,0.8,ENE,3.5,-,0.03,Snow,Light Snow,60,2013-02-07 15:52:00
9:56 AM,34.0,32.0,92,29.99,0.8,NE,3.5,-,0.03,Snow,Light Snow,50,2013-02-07 15:56:00
10:47 AM,33.8,30.2,87,29.98,0.8,East,3.5,-,0.03,Snow,Light Snow,100,2013-02-07 16:47:00
10:56 AM,34.0,32.0,92,29.99,0.8,Calm,Calm,-,0.04,Snow,Light Snow,0,2013-02-07 16:56:00
11:06 AM,33.8,32.0,93,29.99,0.2,Calm,Calm,-,0.03,Fog-Snow,Snow,0,2013-02-07 17:06:00
11:17 AM,33.8,30.2,87,29.99,0.2,NE,3.5,-,0.08,Fog-Snow,Light Snow,50,2013-02-07 17:17:00
11:20 AM,33.8,30.2,87,29.99,0.5,Calm,Calm,-,0.08,Fog-Snow,Light Snow,0,2013-02-07 17:20:00
11:56 AM,34.0,32.0,92,29.97,0.8,Calm,Calm,-,0.12,Snow,Light Snow,0,2013-02-07 17:56:00
12:13 PM,33.8,32.0,93,29.96,0.8,Calm,Calm,-,0.01,Snow,Light Snow,0,2013-02-07 18:13:00
12:20 PM,33.8,32.0,93,29.95,0.8,Calm,Calm,-,0.01,Snow,Light Snow,0,2013-02-07 18:20:00
12:33 PM,33.8,32.0,93,29.94,0.8,Calm,Calm,-,0.01,Snow,Light Snow,0,2013-02-07 18:33:00
12:46 PM,33.8,33.8,100,29.94,1.0,Calm,Calm,-,0.02,Snow,Light Snow,0,2013-02-07 18:46:00
12:56 PM,34.0,33.1,96,29.95,1.0,Calm,Calm,-,0.02,Snow,Light Snow,0,2013-02-07 18:56:00
1:13 PM,35.6,33.8,93,29.94,1.5,Calm,Calm,-,0.01,Snow,Light Snow,0,2013-02-07 19:13:00
1:36 PM,35.6,32.0,87,29.93,2.0,NE,3.5,-,0.02,Snow,Light Snow,40,2013-02-07 19:36:00
1:56 PM,35.1,32.0,89,29.94,2.0,NE,5.8,-,0.02,Snow,Light Snow,40,2013-02-07 19:56:00
2:09 PM,35.6,32.0,87,29.93,1.5,NNE,5.8,-,0.01,Snow,Light Snow,20,2013-02-07 20:09:00
2:26 PM,33.8,30.2,87,29.93,1.0,NE,6.9,-,0.02,Snow,Light Snow,40,2013-02-07 20:26:00
2:32 PM,33.8,30.2,87,29.93,0.8,NE,5.8,-,0.02,Snow,Light Snow,40,2013-02-07 20:32:00
2:56 PM,34.0,30.9,89,29.94,0.5,NNE,4.6,-,0.04,Fog-Snow,Snow,30,2013-02-07 20:56:00
3:10 PM,33.8,30.2,87,29.93,1.0,NNE,6.9,-,0.01,Snow,Light Snow,20,2013-02-07 21:10:00
3:36 PM,33.8,30.2,87,29.94,1.0,North,4.6,-,0.01,Snow,Light Snow,360,2013-02-07 21:36:00
3:46 PM,33.8,30.2,87,29.94,0.8,NNE,3.5,-,0.02,Snow,Light Snow,20,2013-02-07 21:46:00
3:56 PM,34.0,30.9,89,29.94,0.8,NNE,4.6,-,0.02,Snow,Light Snow,20,2013-02-07 21:56:00
4:15 PM,33.8,30.2,87,29.94,0.5,NE,4.6,-,0.02,Fog-Snow,Snow,40,2013-02-07 22:15:00
4:33 PM,33.8,28.4,81,29.94,0.8,NNE,6.9,-,0.02,Snow,Light Snow,20,2013-02-07 22:33:00
4:42 PM,33.8,30.2,87,29.95,0.8,NNE,4.6,-,0.02,Snow,Light Snow,20,2013-02-07 22:42:00
4:52 PM,33.8,28.4,81,29.95,0.8,North,5.8,-,0.03,Snow,Light Snow,10,2013-02-07 22:52:00
4:56 PM,32.0,28.9,88,29.96,0.8,North,6.9,-,0.03,Snow,Light Snow,10,2013-02-07 22:56:00
5:18 PM,32.0,28.4,87,29.96,0.5,North,10.4,-,0.00,Fog-Snow,Snow,10,2013-02-07 23:18:00
5:25 PM,32.0,28.4,87,29.97,0.8,NNW,5.8,-,0.01,Snow,Light Snow,340,2013-02-07 23:25:00
5:28 PM,32.0,28.4,87,29.97,1.0,NNW,11.5,18.4,0.01,Snow,Light Snow,330,2013-02-07 23:28:00
5:36 PM,32.0,26.6,80,29.98,1.2,North,10.4,18.4,0.01,Snow,Light Snow,350,2013-02-07 23:36:00
5:46 PM,30.2,26.6,86,29.98,1.2,North,12.7,19.6,0.01,Snow,Light Snow,350,2013-02-07 23:46:00
5:56 PM,30.9,26.1,82,30.00,1.5,North,15.0,19.6,0.01,Snow,Light Snow,350,2013-02-07 23:56:00
6:05 PM,30.2,26.6,86,29.99,1.5,North,10.4,19.6,0.00,Snow,Light Snow,360,2013-02-08 00:05:00
6:56 PM,30.0,25.0,82,30.03,1.5,North,8.1,20.7,0.00,Snow,Light Snow,360,2013-02-08 00:56:00
7:02 PM,30.2,24.8,80,30.02,1.5,North,12.7,18.4,0.00,Snow,Light Snow,350,2013-02-08 01:02:00
7:16 PM,30.2,24.8,80,30.03,1.8,North,6.9,18.4,0.01,Snow,Light Snow,350,2013-02-08 01:16:00
7:26 PM,30.2,24.8,80,30.03,2.0,North,9.2,-,0.01,Snow,Light Snow,350,2013-02-08 01:26:00
7:33 PM,30.2,24.8,80,30.04,2.0,NNW,12.7,16.1,0.01,Snow,Light Snow,340,2013-02-08 01:33:00
7:46 PM,30.2,24.8,80,30.04,1.5,NNW,9.2,-,0.01,Snow,Light Snow,340,2013-02-08 01:46:00
7:56 PM,30.0,25.0,82,30.05,1.2,North,9.2,-,0.01,Snow,Light Snow,350,2013-02-08 01:56:00
8:20 PM,30.2,24.8,80,30.05,2.5,NNW,8.1,-,0.00,Snow,Light Snow,330,2013-02-08 02:20:00
8:29 PM,30.2,24.8,80,30.05,4.0,North,8.1,-,0.00,Snow,Light Snow,350,2013-02-08 02:29:00
8:37 PM,30.2,24.8,80,30.05,5.0,North,11.5,18.4,0.00,,Haze,360,2013-02-08 02:37:00
8:49 PM,28.4,24.8,86,30.06,4.0,North,13.8,21.9,0.00,Snow,Light Snow,10,2013-02-08 02:49:00
8:56 PM,28.9,24.1,82,30.07,4.0,North,11.5,21.9,0.00,Snow,Light Snow,360,2013-02-08 02:56:00
9:46 PM,28.4,23.0,80,30.08,10.0,North,18.4,23.0,0.00,,Overcast,360,2013-02-08 03:46:00
9:56 PM,28.0,21.9,78,30.09,10.0,NNE,18.4,26.5,0.00,,Overcast,20,2013-02-08 03:56:00
10:56 PM,28.0,19.9,72,30.12,10.0,NNE,8.1,18.4,N/A,,Overcast,20,2013-02-08 04:56:00
11:56 PM,27.0,21.0,78,30.14,10.0,NNE,10.4,-,N/A,,Overcast,30,2013-02-08 05:56:00